Location: York
(31.8935°S, 116.7682°E)
Time: 23:32:40
(UTC+08:00)

X-37B - Visible Passes

Search period start: 15 May 2021 00:00
Search period end: 25 May 2021 00:00
Orbit: 386 x 389 km, 45.0° (Epoch: 08 May)

Date Brightness Start Highest point End Pass type
(mag) Time Alt. Az. Time Alt. Az. Time Alt. Az.
17 May 3.2 06:12:04 10° S 06:13:28 12° SSE 06:14:51 10° SE visible
19 May 2.9 05:51:44 12° SSW 05:53:36 17° SSE 05:55:51 10° ESE visible
20 May 3.7 04:56:05 11° SE 04:56:05 11° SE 04:56:23 10° SE visible
20 May 1.2 06:28:58 10° SW 06:32:08 51° SSE 06:35:16 10° ENE visible
21 May 2.2 05:32:47 24° S 05:33:39 27° SSE 05:36:28 10° E visible
22 May 4.1 04:37:15 10° ESE 04:37:15 10° ESE 04:37:20 10° ESE visible
22 May 0.6 06:09:33 16° WSW 06:12:00 71° NW 06:15:11 10° NE visible
23 May 1.5 05:14:04 46° ESE 05:14:04 46° ESE 05:16:45 10° ENE visible
24 May 1.7 05:50:58 26° WNW 05:51:46 30° NW 05:54:36 10° NNE visible
